Location: Unnamed
(48.6007°N, 2.4808°E)
Time: 21:55:02
(UTC+02:00)

CUTE 1.7 + AOD 2 - Pass Details

Date: 05 April 2023
Orbit: 582 x 600 km, 97.7° (Epoch: 31 May)

Event Time Altitude Azimuth Distance (km) Brightness Sun altitude
Rises 06:26:03 0° 4° (N) 2,858 ? -9.5°
Reaches altitude 10° 06:28:25 10° 354° (N) 1,953 ? -9.2°
Maximum altitude 06:32:07 30° 293° (WNW) 1,089 ? -8.6°
Drops below altitude 10° 06:35:48 10° 233° (SW) 1,945 ? -8.0°
Enters shadow 06:36:11 - 230° (SW) 2,082 ? -7.9°
